TimeAST,TemperatureF,Dew PointF,Humidity,Sea Level PressureIn,VisibilityMPH,Wind Direction,Wind SpeedMPH,Gust SpeedMPH,PrecipitationIn,Events,Conditions,WindDirDegrees,DateUTC
12:00 AM,75.2,68.0,78,30.01,6.2,East,18.4,-,N/A,Rain,Light Rain Showers,80,2013-12-08 04:00:00
1:00 AM,78.8,68.0,69,29.98,6.2,East,20.7,-,N/A,,Scattered Clouds,80,2013-12-08 05:00:00
2:00 AM,74,69,79,30.00,6,East,16.1,,,Rain,Light Rain Showers,90,2013-12-08 06:00:00
2:00 AM,75.2,68.0,78,29.98,6.2,East,16.1,-,N/A,Rain,Light Rain Showers,90,2013-12-08 06:00:00
3:00 AM,71.6,68.0,88,29.98,6.2,East,25.3,-,N/A,Rain,Rain Showers,80,2013-12-08 07:00:00
4:00 AM,-9999,68.0,N/A,29.98,6.2,ENE,18.4,-,N/A,Rain,Light Rain Showers,70,2013-12-08 08:00:00
5:00 AM,78,66,58,29.98,12,ENE,19.6,,,,Partly Cloudy,70,2013-12-08 09:00:00
5:00 AM,77.0,66.2,69,29.98,6.2,ENE,19.6,-,N/A,,Mostly Cloudy,70,2013-12-08 09:00:00
6:00 AM,77.0,69.8,78,29.98,6.2,East,17.3,-,N/A,Rain,Light Rain Showers,100,2013-12-08 10:00:00
7:00 AM,75.2,69.8,83,30.01,3.7,East,21.9,36.8,N/A,Rain,Rain Showers,80,2013-12-08 11:00:00
8:00 AM,77,69,71,30.04,2,ENE,18.4,,,Rain,Heavy Rain Showers,70,2013-12-08 12:00:00
8:00 AM,77.0,69.8,78,30.04,1.9,ENE,18.4,32.2,N/A,Rain,Heavy Rain Showers,70,2013-12-08 12:00:00
8:35 AM,78.8,68.0,69,30.06,6.2,East,17.3,-,N/A,Rain,Light Rain,80,2013-12-08 12:35:00
9:00 AM,78.8,68.0,69,30.06,6.2,East,17.3,-,N/A,Rain,Light Rain,90,2013-12-08 13:00:00
10:00 AM,80.6,68.0,65,30.06,6.2,ENE,20.7,33.4,N/A,,Scattered Clouds,70,2013-12-08 14:00:00
11:00 AM,81,69,60,30.07,16,ENE,18.4,,,,Partly Cloudy,70,2013-12-08 15:00:00
11:00 AM,80.6,69.8,70,30.06,6.2,ENE,18.4,-,N/A,,Partly Cloudy,70,2013-12-08 15:00:00
12:00 PM,82.4,68.0,62,30.04,6.2,ENE,20.7,-,N/A,,Scattered Clouds,70,2013-12-08 16:00:00
1:00 PM,80.6,69.8,70,30.04,6.2,ENE,20.7,-,N/A,,Scattered Clouds,70,2013-12-08 17:00:00
1:26 PM,80.6,68.0,65,30.01,6.2,East,18.4,31.1,N/A,,Scattered Clouds,80,2013-12-08 17:26:00
2:00 PM,80,69,60,30.02,12,East,20.7,,,,Partly Cloudy,80,2013-12-08 18:00:00
2:00 PM,80.6,68.0,65,30.01,6.2,East,20.7,-,N/A,,Scattered Clouds,80,2013-12-08 18:00:00
3:00 PM,80.6,68.0,65,30.01,6.2,ENE,21.9,-,N/A,,Partly Cloudy,70,2013-12-08 19:00:00
4:00 PM,80.6,68.0,65,30.01,6.2,ENE,20.7,-,N/A,,Scattered Clouds,70,2013-12-08 20:00:00
4:38 PM,78.8,68.0,69,30.01,6.2,East,18.4,33.4,N/A,,Scattered Clouds,80,2013-12-08 20:38:00
5:00 PM,80,65,52,30.02,12,ENE,23.0,,,,Partly Cloudy,70,2013-12-08 21:00:00
5:00 PM,80.6,64.4,58,30.01,6.2,ENE,23.0,-,N/A,,Partly Cloudy,70,2013-12-08 21:00:00
6:00 PM,78.8,68.0,69,30.04,6.2,ENE,19.6,-,N/A,,Partly Cloudy,70,2013-12-08 22:00:00
7:00 PM,78.8,68.0,69,30.04,6.2,ENE,19.6,32.2,N/A,,Partly Cloudy,70,2013-12-08 23:00:00
8:00 PM,79,70,67,30.06,12,ENE,18.4,,,,,70,2013-12-09 00:00:00
8:00 PM,78.8,69.8,74,30.04,6.2,ENE,18.4,31.1,N/A,,Partly Cloudy,70,2013-12-09 00:00:00
9:00 PM,78.8,68.0,69,30.06,6.2,East,17.3,29.9,N/A,,Scattered Clouds,80,2013-12-09 01:00:00
10:00 PM,78.8,68.0,69,30.06,6.2,East,18.4,33.4,N/A,,Partly Cloudy,80,2013-12-09 02:00:00
11:00 PM,80,67,56,30.09,19,East,13.8,,,,Partly Cloudy,80,2013-12-09 03:00:00
11:00 PM,80.6,66.2,61,30.06,6.2,East,13.8,-,N/A,,Scattered Clouds,80,2013-12-09 03:00:00